[ hide orbit diagram ]
For accurate long-term ephemerides, please instead use our Horizons system.This orbit viewer was implemented using two-body methods, and hence should not be used for determining accurate long-term trajectories (over several years or decades) or planetary encounter circumstances.
Orbital Elements at Epoch 2459200.5 (2020-Dec-17.0) TDB
Reference: JPL 13 (heliocentric ecliptic J2000)
Element | Value | Uncertainty (1-sigma) | Units |
e | .2422814848914181 | 5.14e-08 | |
a | 2.354249823562315 | 6.6918e-09 | au |
q | 1.783858680504278 | 1.2204e-07 | au |
i | 5.349574345934131 | 5.9251e-06 | deg |
node | 171.0934250823936 | 4.2279e-05 | deg |
peri | 209.9753704867387 | 4.3818e-05 | deg |
M | 106.5365482102974 | 9.1939e-06 | deg |
tp | 2458810.042861283095 (2019-Nov-22.54286128) | 3.326e-05 | TDB |
period | 1319.402329993074 3.61 | 5.6255e-06 1.54e-08 | d yr |
n | .2728508142030412 | 1.1633e-09 | deg/d |
Q | 2.924640966620352 | 8.3131e-09 | au |
|
| | Orbit Determination Parameters
Additional Information
|
[ show covariance matrix ]
Physical Parameter Table
Parameter |
Symbol |
Value |
Units |
Sigma |
Reference |
Notes |
absolute magnitude |
H |
16.5 |
|
n/a |
MPO494073 |
|
diameter |
diameter |
3.152 |
km |
1.271 |
urn:nasa:pds:neowise_diameters_albedos::2.0[mainbelt] (http://adsabs.harvard.edu/abs/2011ApJ...741...68M) |
|
geometric albedo |
albedo |
0.054 |
|
0.038 |
urn:nasa:pds:neowise_diameters_albedos::2.0[mainbelt] (http://adsabs.harvard.edu/abs/2011ApJ...741...68M) |
|
|
193902 (2001 QJ242) Discovered 2001-Aug-24 by LINEAR at Socorro |
Reference: 20081113/Numbers.arc | Last Updated: 2008-11-17 |
|
[ show close-approach data ]
|